N6RSX Weather Reports


Display with metric or nautical units.
time (UTC)temp
F
wind
direction
speed
MPH
gust
MPH
rain 1hr
in
rain 24hr
in
rain mn
in
humidity
%
barometer
mb
20260508002255 74 205 5.0 11.0 0.00 0.00 0.00 61 1013.9
20260508001255 75 208 5.0 9.0 0.00 0.00 0.00 60 1013.9
20260508000753 75 188 5.0 10.0 0.00 0.00 0.00 60 1013.8
20260508000253 75 194 5.0 10.0 0.00 0.00 0.00 60 1013.8
20260507235753 75 175 6.0 12.0 0.00 0.00 0.00 59 1013.9
20260507235252 74 168 7.0 12.0 0.00 0.00 0.00 59 1013.9
20260507234751 75 209 6.0 14.0 0.00 0.00 0.00 59 1014.0
20260507234250 76 209 5.0 14.0 0.00 0.00 0.00 57 1013.8
20260507233749 75 167 5.0 11.0 0.00 0.00 0.00 57 1013.8
20260507233249 76 206 5.0 12.0 0.00 0.00 0.00 56 1013.9
20260507232749 75 173 6.0 12.0 0.00 0.00 0.00 57 1013.9
20260507232249 75 171 6.0 11.0 0.00 0.00 0.00 56 1014.0
20260507231749 76 198 6.0 12.0 0.00 0.00 0.00 56 1013.9
20260507231245 76 202 5.0 12.0 0.00 0.00 0.00 56 1014.0
20260507230744 76 230 6.0 12.0 0.00 0.00 0.00 56 1013.9
20260507230243 76 227 6.0 12.0 0.00 0.00 0.00 56 1013.9
20260507225743 75 185 6.0 13.0 0.00 0.00 0.00 56 1013.9
20260507225243 75 203 7.0 13.0 0.00 0.00 0.00 55 1013.9
20260507224742 76 184 6.0 14.0 0.00 0.00 0.00 55 1014.0
20260507224242 76 200 6.0 14.0 0.00 0.00 0.00 55 1014.0
20260507223741 76 189 6.0 12.0 0.00 0.00 0.00 55 1014.0
20260507223242 76 192 6.0 12.0 0.00 0.00 0.00 55 1014.0
20260507222741 76 190 6.0 15.0 0.00 0.00 0.00 54 1013.8
20260507222241 76 208 6.0 15.0 0.00 0.00 0.00 55 1014.0
20260507221741 76 233 6.0 14.0 0.00 0.00 0.00 55 1013.9
20260507221241 76 208 6.0 12.0 0.00 0.00 0.00 54 1014.0
20260507220741 76 215 5.0 11.0 0.00 0.00 0.00 54 1014.1
20260507220241 76 168 5.0 11.0 0.00 0.00 0.00 54 1014.3
20260507215735 76 180 5.0 11.0 0.00 0.00 0.00 54 1014.4
20260507215236 76 218 6.0 12.0 0.00 0.00 0.00 56 1014.4
20260507214233 76 208 5.0 12.0 0.00 0.00 0.00 55 1014.5
20260507213233 76 205 6.0 15.0 0.00 0.00 0.00 55 1014.8
20260507212734 76 209 6.0 12.0 0.00 0.00 0.00 55 1014.8
20260507212233 76 190 6.0 12.0 0.00 0.00 0.00 56 1014.8
20260507211735 75 197 6.0 10.0 0.00 0.00 0.00 56 1014.9
20260507211233 76 203 7.0 13.0 0.00 0.00 0.00 55 1014.9
20260507210733 75 207 7.0 13.0 0.00 0.00 0.00 55 1014.9
20260507210233 76 196 6.0 11.0 0.00 0.00 0.00 55 1014.9
20260507205733 76 262 6.0 11.0 0.00 0.00 0.00 56 1014.9
20260507205233 76 185 6.0 11.0 0.00 0.00 0.00 57 1015.1
20260507204733 76 175 6.0 12.0 0.00 0.00 0.00 57 1015.0
20260507204232 76 204 6.0 15.0 0.00 0.00 0.00 58 1015.0
20260507203733 76 194 6.0 15.0 0.00 0.00 0.00 58 1015.2
20260507202729 75 210 5.0 11.0 0.00 0.00 0.00 59 1015.1
20260507202228 75 186 6.0 13.0 0.00 0.00 0.00 59 1015.0
20260507201730 75 201 6.0 13.0 0.00 0.00 0.00 59 1015.1
20260507201228 76 153 5.0 12.0 0.00 0.00 0.00 59 1015.2
20260507200229 76 153 5.0 10.0 0.00 0.00 0.00 57 1015.3
20260507195728 76 212 4.0 12.0 0.00 0.00 0.00 59 1015.3
20260507195229 76 190 5.0 12.0 0.00 0.00 0.00 58 1015.3
20260507194729 76 228 5.0 12.0 0.00 0.00 0.00 58 1015.3
20260507194227 76 243 4.0 10.0 0.00 0.00 0.00 58 1015.3
20260507193723 75 146 4.0 9.0 0.00 0.00 0.00 56 1015.3
20260507193215 76 201 4.0 9.0 0.00 0.00 0.00 57 1015.3
20260507192205 75 147 3.0 10.0 0.00 0.00 0.00 57 1015.4
20260507191658 75 215 2.0 10.0 0.00 0.00 0.00 57 1015.5
20260507191152 74 178 3.0 10.0 0.00 0.00 0.00 59 1015.6
20260507190646 74 213 3.0 10.0 0.00 0.00 0.00 58 1015.7
20260507190143 74 170 3.0 9.0 0.00 0.00 0.00 58 1015.9
20260507185643 74 144 3.0 9.0 0.00 0.00 0.00 57 1016.0
20260507185143 73 294 3.0 8.0 0.00 0.00 0.00 60 1016.0
20260507184642 74 190 3.0 8.0 0.00 0.00 0.00 58 1016.1
20260507184143 74 219 2.0 8.0 0.00 0.00 0.00 60 1016.2
20260507183644 73 278 2.0 7.0 0.00 0.00 0.00 60 1016.1
20260507183142 73 189 2.0 7.0 0.00 0.00 0.00 61 1016.2
20260507182142 72 130 2.0 7.0 0.00 0.00 0.00 61 1016.3
20260507181642 72 175 2.0 7.0 0.00 0.00 0.00 62 1016.3
20260507180642 71 234 2.0 7.0 0.00 0.00 0.00 64 1016.4
20260507175643 71 159 3.0 7.0 0.00 0.00 0.00 64 1016.4
20260507175142 70 216 4.0 10.0 0.00 0.00 0.00 64 1016.5
20260507174642 70 166 4.0 10.0 0.00 0.00 0.00 65 1016.6
20260507174142 70 159 2.0 6.0 0.00 0.00 0.00 66 1016.4
20260507173636 69 150 2.0 6.0 0.00 0.00 0.00 66 1016.5
20260507173131 69 150 2.0 6.0 0.00 0.00 0.00 67 1016.5
20260507172624 69 198 2.0 7.0 0.00 0.00 0.00 68 1016.4
20260507171613 68 163 2.0 5.0 0.00 0.00 0.00 68 1016.5
20260507171106 68 184 3.0 6.0 0.00 0.00 0.00 68 1016.6
20260507170054 68 176 1.0 5.0 0.00 0.00 0.00 70 1016.5
20260507165548 67 174 2.0 6.0 0.00 0.00 0.00 70 1016.6
20260507165042 66 176 2.0 6.0 0.00 0.00 0.00 70 1016.7
20260507164030 66 173 2.0 7.0 0.00 0.00 0.00 71 1016.6
20260507163525 66 103 2.0 7.0 0.00 0.00 0.00 71 1016.7
20260507163018 65 22 2.0 5.0 0.00 0.00 0.00 73 1016.7
20260507162512 65 221 2.0 6.0 0.00 0.00 0.00 73 1016.7
20260507162006 65 217 2.0 6.0 0.00 0.00 0.00 73 1016.7
20260507161500 65 224 2.0 6.0 0.00 0.00 0.00 74 1016.7
20260507160955 65 201 1.0 4.0 0.00 0.00 0.00 74 1016.7
20260507160448 65 107 1.0 4.0 0.00 0.00 0.00 74 1016.8
20260507155942 64 225 1.0 4.0 0.00 0.00 0.00 74 1016.8
20260507155436 64 173 0.0 3.0 0.00 0.00 0.00 75 1016.8
20260507154424 64 209 1.0 4.0 0.00 0.00 0.00 74 1016.9
20260507153412 63 89 1.0 3.0 0.00 0.00 0.00 77 1016.9
20260507152906 62 89 1.0 3.0 0.00 0.00 0.00 78 1017.0
20260507152359 62 159 1.0 4.0 0.00 0.00 0.00 79 1016.9
20260507151853 62 201 1.0 4.0 0.00 0.00 0.00 79 1016.9
20260507151348 62 146 1.0 3.0 0.00 0.00 0.00 78 1016.9
20260507150848 61 160 1.0 3.0 0.00 0.00 0.00 78 1016.9
20260507150348 61 160 1.0 3.0 0.00 0.00 0.00 77 1016.9
20260507145848 61 158 1.0 5.0 0.00 0.00 0.00 77 1016.9
20260507145348 62 167 0.0 5.0 0.00 0.00 0.00 77 1016.9
20260507144848 61 155 0.0 0.0 0.00 0.00 0.00 77 1016.9
20260507144346 61 137 0.0 0.0 0.00 0.00 0.00 78 1016.9
20260507143342 60 21 0.0 0.0 0.00 0.00 0.00 80 1016.8
20260507142841 59 21 0.0 0.0 0.00 0.00 0.00 82 1016.8
20260507142339 58 21 0.0 0.0 0.00 0.00 0.00 82 1016.7
20260507141837 57 21 0.0 0.0 0.00 0.00 0.00 83 1016.6
20260507141335 57 21 0.0 0.0 0.00 0.00 0.00 84 1016.5
20260507140833 56 21 0.0 0.0 0.00 0.00 0.00 85 1016.5
20260507140331 55 21 0.0 1.0 0.00 0.00 0.00 86 1016.5
20260507135326 54 348 1.0 2.0 0.00 0.00 0.00 87 1016.4
20260507134826 54 348 1.0 2.0 0.00 0.00 0.00 87 1016.4
20260507134326 53 28 1.0 2.0 0.00 0.00 0.00 88 1016.4
20260507133826 53 333 0.0 2.0 0.00 0.00 0.00 88 1016.3
20260507133326 53 333 0.0 0.0 0.00 0.00 0.00 89 1016.2
20260507132315 52 333 0.0 0.0 0.00 0.00 0.00 88 1016.2
20260507130756 52 335 0.0 2.0 0.00 0.00 0.00 88 1015.9
20260507130249 52 355 0.0 0.0 0.00 0.00 0.00 88 1015.9
20260507125238 52 355 0.0 1.0 0.00 0.00 0.00 88 1015.8
20260507124732 53 355 0.0 3.0 0.00 0.00 0.00 88 1015.9
20260507124226 53 335 1.0 4.0 0.00 0.00 0.00 88 1015.9
20260507123721 52 340 1.0 4.0 0.00 0.00 0.00 88 1015.9
20260507123216 53 339 0.0 1.0 0.00 0.00 0.00 87 1015.9
20260507122711 53 348 0.0 0.0 0.00 0.00 0.00 87 1015.9
20260507122211 53 348 0.0 0.0 0.00 0.00 0.00 87 1016.0
20260507121207 53 348 0.0 0.0 0.00 0.00 0.00 87 1016.0
20260507120706 53 348 0.0 0.0 0.00 0.00 0.00 87 1016.1
20260507115706 53 342 0.0 0.0 0.00 0.00 0.00 87 1016.1
20260507115205 53 342 0.0 0.0 0.00 0.00 0.00 87 1016.1
20260507114705 53 347 0.0 0.0 0.00 0.00 0.00 86 1016.1
20260507114203 53 347 0.0 0.0 0.00 0.00 0.00 86 1016.0
20260507113704 53 355 0.0 0.0 0.00 0.00 0.00 86 1016.1
20260507113204 53 355 0.0 0.0 0.00 0.00 0.00 86 1016.1
20260507112704 53 355 0.0 2.0 0.00 0.00 0.00 85 1016.1
20260507112202 53 355 0.0 2.0 0.00 0.00 0.00 86 1016.1
20260507111700 53 5 0.0 0.0 0.00 0.00 0.00 85 1016.1
20260507111201 53 5 0.0 0.0 0.00 0.00 0.00 85 1016.2
20260507110201 53 5 0.0 0.0 0.00 0.00 0.00 85 1016.2
20260507105659 53 5 0.0 0.0 0.00 0.00 0.00 85 1016.2
20260507105201 53 5 0.0 0.0 0.00 0.00 0.00 85 1016.2
20260507104700 54 5 0.0 0.0 0.00 0.00 0.00 85 1016.2
20260507104202 54 5 0.0 3.0 0.00 0.00 0.00 85 1016.3
20260507103701 54 5 1.0 3.0 0.00 0.00 0.00 85 1016.2
20260507103201 54 355 1.0 2.0 0.00 0.00 0.00 85 1016.3
20260507102701 54 335 1.0 3.0 0.00 0.00 0.00 85 1016.4
20260507102202 54 327 1.0 3.0 0.00 0.00 0.00 85 1016.4
20260507101700 54 347 1.0 3.0 0.00 0.00 0.00 85 1016.4
20260507101202 54 317 1.0 3.0 0.00 0.00 0.00 85 1016.3
20260507100201 54 328 1.0 3.0 0.00 0.00 0.00 85 1016.4
20260507095700 54 344 0.0 2.0 0.00 0.00 0.00 85 1016.6
20260507094657 54 355 1.0 3.0 0.00 0.00 0.00 85 1016.5
20260507094157 54 0 2.0 3.0 0.00 0.00 0.00 85 1016.6
20260507093656 54 0 1.0 3.0 0.00 0.00 0.00 85 1016.6
20260507093156 54 11 0.0 3.0 0.00 0.00 0.00 85 1016.8
20260507092656 54 350 0.0 2.0 0.00 0.00 0.00 85 1016.8
20260507092157 54 5 0.0 2.0 0.00 0.00 0.00 85 1016.8
20260507091655 55 0 0.0 2.0 0.00 0.00 0.00 85 1016.9
20260507091154 55 338 0.0 2.0 0.00 0.00 0.00 85 1017.0
20260507090653 55 355 0.0 0.0 0.00 0.00 0.00 85 1017.1
20260507090153 55 355 0.0 0.0 0.00 0.00 0.00 85 1017.0
20260507085652 55 355 0.0 0.0 0.00 0.00 0.00 85 1017.0
20260507085150 55 355 0.0 0.0 0.00 0.00 0.00 85 1017.1
20260507084651 55 355 0.0 0.0 0.00 0.00 0.00 84 1017.2
20260507084148 55 355 0.0 0.0 0.00 0.00 0.00 84 1017.2
20260507083647 55 340 0.0 0.0 0.00 0.00 0.00 84 1017.2
20260507083141 55 340 0.0 0.0 0.00 0.00 0.00 84 1017.3
20260507082634 55 340 0.0 0.0 0.00 0.00 0.00 84 1017.3
20260507082130 55 340 0.0 0.0 0.00 0.00 0.00 84 1017.3
20260507081623 55 340 0.0 0.0 0.00 0.00 0.00 84 1017.2
20260507080105 56 338 1.0 3.0 0.00 0.00 0.00 84 1017.4
20260507075559 56 347 0.0 3.0 0.00 0.00 0.00 84 1017.3
20260507075052 56 340 0.0 3.0 0.00 0.00 0.00 84 1017.3
20260507074546 56 340 0.0 3.0 0.00 0.00 0.00 84 1017.3
20260507073535 56 355 0.0 2.0 0.00 0.00 0.00 83 1017.5
20260507073030 56 0 0.0 2.0 0.00 0.00 0.00 83 1017.4
20260507072524 56 350 1.0 3.0 0.00 0.00 0.00 83 1017.5
20260507071004 56 0 0.0 1.0 0.00 0.00 0.00 82 1017.4
20260507065953 56 332 0.0 2.0 0.00 0.00 0.00 81 1017.5
20260507064941 57 355 0.0 0.0 0.00 0.00 0.00 80 1017.6
20260507063929 57 355 0.0 2.0 0.00 0.00 0.00 80 1017.7
20260507063424 57 345 0.0 0.0 0.00 0.00 0.00 80 1017.7
20260507062419 58 355 0.0 0.0 0.00 0.00 0.00 79 1017.6
20260507061917 58 355 0.0 0.0 0.00 0.00 0.00 79 1017.8
20260507061417 58 355 0.0 0.0 0.00 0.00 0.00 78 1017.6
20260507060417 59 346 0.0 2.0 0.00 0.00 0.00 77 1017.8
20260507055919 59 19 1.0 3.0 0.00 0.00 0.00 76 1017.6
20260507055419 60 37 0.0 3.0 0.00 0.00 0.00 75 1017.8
20260507054415 61 355 1.0 2.0 0.00 0.00 0.00 73 1017.7
20260507053912 61 33 0.0 2.0 0.00 0.00 0.00 72 1017.9
20260507053410 62 13 0.0 2.0 0.00 0.00 0.00 72 1017.7
20260507052907 62 31 0.0 4.0 0.00 0.00 0.00 71 1017.7
20260507052408 63 199 1.0 4.0 0.00 0.00 0.00 71 1017.7
20260507051907 63 222 1.0 3.0 0.00 0.00 0.00 71 1017.7
20260507051405 63 225 1.0 3.0 0.00 0.00 0.00 71 1017.8
20260507050904 63 236 1.0 3.0 0.00 0.00 0.00 70 1017.8
20260507050404 63 232 1.0 2.0 0.00 0.00 0.00 70 1017.8
20260507045904 63 225 1.0 3.0 0.00 0.00 0.00 69 1017.7
20260507045356 63 207 0.0 3.0 0.00 0.00 0.00 69 1017.7
20260507044857 64 214 1.0 3.0 0.00 0.00 0.00 69 1017.7
20260507043837 64 210 1.0 4.0 0.00 0.00 0.00 68 1017.7
20260507043332 64 189 1.0 4.0 0.00 0.00 0.00 68 1017.6
20260507042825 64 202 2.0 5.0 0.00 0.00 0.00 68 1017.7
20260507042319 64 182 3.0 5.0 0.00 0.00 0.00 67 1017.6
20260507041813 64 219 2.0 5.0 0.00 0.00 0.00 67 1017.6
20260507041307 64 220 2.0 7.0 0.00 0.00 0.00 67 1017.6
20260507040801 65 257 2.0 7.0 0.00 0.00 0.00 67 1017.6
20260507035244 65 221 3.0 7.0 0.00 0.00 0.00 66 1017.3
20260507034737 65 232 2.0 7.0 0.00 0.00 0.00 66 1017.3
20260507034231 65 221 2.0 8.0 0.00 0.00 0.00 66 1017.2
20260507033725 65 219 4.0 8.0 0.00 0.00 0.00 66 1017.1
20260507033219 66 198 3.0 7.0 0.00 0.00 0.00 65 1017.0
20260507032714 66 217 3.0 7.0 0.00 0.00 0.00 65 1017.1
20260507032206 66 221 2.0 9.0 0.00 0.00 0.00 64 1017.0
20260507031702 66 244 3.0 9.0 0.00 0.00 0.00 63 1016.9
20260507031155 67 200 3.0 8.0 0.00 0.00 0.00 63 1016.8
20260507030650 67 215 3.0 8.0 0.00 0.00 0.00 62 1016.8
20260507030143 67 228 3.0 8.0 0.00 0.00 0.00 62 1016.8
20260507025637 67 232 3.0 8.0 0.00 0.00 0.00 62 1016.7
20260507025131 67 242 4.0 8.0 0.00 0.00 0.00 62 1016.7
20260507024625 67 229 3.0 9.0 0.00 0.00 0.00 62 1016.6
20260507024119 68 200 4.0 9.0 0.00 0.00 0.00 61 1016.7
20260507023613 68 231 4.0 10.0 0.00 0.00 0.00 61 1016.5
20260507023107 68 231 4.0 10.0 0.00 0.00 0.00 61 1016.4
20260507022056 69 217 3.0 7.0 0.00 0.00 0.00 60 1016.2
20260507021549 69 215 3.0 7.0 0.00 0.00 0.00 60 1016.2
20260507020031 70 209 4.0 8.0 0.00 0.00 0.00 60 1015.9
20260507015525 70 173 5.0 9.0 0.00 0.00 0.00 60 1015.9
20260507015019 70 167 5.0 9.0 0.00 0.00 0.00 59 1015.9
20260507014007 70 165 5.0 9.0 0.00 0.00 0.00 58 1015.9
20260507013501 70 167 6.0 11.0 0.00 0.00 0.00 58 1015.9
20260507012955 70 170 6.0 11.0 0.00 0.00 0.00 58 1015.8
20260507012450 71 205 6.0 11.0 0.00 0.00 0.00 57 1015.6
20260507011439 71 202 6.0 12.0 0.00 0.00 0.00 57 1015.7
20260507010932 71 224 6.0 12.0 0.00 0.00 0.00 57 1015.7
20260507005929 71 185 7.0 14.0 0.00 0.00 0.00 56 1015.6
20260507005429 72 209 7.0 14.0 0.00 0.00 0.00 56 1015.5
20260507004930 72 192 6.0 10.0 0.00 0.00 0.00 55 1015.5
20260507004427 72 242 6.0 12.0 0.00 0.00 0.00 56 1015.6
20260507003929 72 193 6.0 12.0 0.00 0.00 0.00 55 1015.6
20260507002926 72 180 5.0 10.0 0.00 0.00 0.00 55 1015.5